Hourly Data Report for October 09, 2016

CORAL HARBOUR A
NUNAVUT

64°11'36.000" N
83°21'34.000" W
62.20 m
2301002
71915
YZS

Download Data

Hourly Data (October 2016)
Hourly Data Report for October 9, 2016
TIME
LST
Temp Definition
°C
Dew Point Definition
°C
Rel Hum Definition
%
Precip. Amount Definition
mm

Wind Dir Definition
10's deg

Wind Spd Definition
km/h
Visibility Definition
km
Stn Press Definition
kPa
Hmdx Definition


Wind Chill Definition


Weather Definition


00:00 -4.2 -5.6 90   27 4 24.1 100.90   -6 LegendNANA
01:00 -4.7 -6.1 90   36 9 24.1 100.90   -9 Mainly Clear
02:00 -3.8 -5.2 90   32 8 24.1 100.91   -7 LegendNANA
03:00 -4.8 -6.3 89   33 17 24.1 100.90   -11 LegendNANA
04:00 -5.6 -7.1 89   33 17 24.1 100.93   -12 Mainly Clear
05:00 -6.0 -7.5 89   36 13 24.1 100.95   -11 LegendNANA
06:00 -6.4 -7.8 90   33 15 24.1 100.98   -12 LegendNANA
07:00 -5.5 -6.6 92   31 13 24.1 100.98   -11 Mainly Clear
08:00 -3.6 -5.3 88   30 17 24.1 100.97   -9 LegendNANA
09:00 -2.7 -4.6 87   30 17 24.1 100.97   -8 LegendNANA
10:00 -1.6 -4.0 84   29 19 24.1 100.97   -7 Mostly Cloudy
11:00 -1.1 -3.8 82   29 19 24.1 100.99   -6 LegendNANA
12:00 -0.7 -3.9 79   28 22 24.1 100.98   -6 LegendNANA
13:00 -0.2 -4.7 72   29 25 24.1 100.98   -6 Mostly Cloudy
14:00 0.0 -6.4 62   28 28 24.1 100.98   -6 LegendNANA
15:00 0.0 -6.0 64   29 26 24.1 100.98   -6 LegendNANA
16:00 -0.5 -5.1 71   29 22 24.1 100.99   -6 Mostly Cloudy
17:00 -1.5 -5.2 76   29 16 24.1 100.99   -6 LegendNANA
18:00 -2.0 -5.0 80   28 27 24.1 100.99   -9 LegendNANA
19:00 -3.5 -5.1 89   25 16 24.1 101.00   -9 Mainly Clear
20:00 -3.1 -4.4 91   26 16 6.4 100.98   -8 Snow
21:00 -3.2 -4.0 94   24 13 6.4 100.98   -8 Snow
22:00 -4.6 -5.3 95   26 17 24.1 100.97   -10 Mainly Clear
23:00 -4.2 -5.8 89   27 16 24.1 100.95   -10 LegendNANA

Notes on Data Quality.

Legend

  • E = Estimated
  • M = Missing
  • NA = Not Available*
  • [empty] = Indicates an unobserved value
Date modified: